Regional Weather Roundup
Issued by NWS New Orleans/Baton Rouge, LA

Home | Current Version | Previous Version | Text Only | Print | Product List | Glossary On
Versions: 1 2 3 4 5 6 7 8 9 10 11 12 13 14 15 16 17 18 19 20 21 22 23 24 25 26 27 28 29 30 31 32 33 34 35 36 37 38 39 40 41 42 43 44 45 46 47 48 49 50
000
ASUS44 KLIX 280012
RWRLIX
NEW ORLEANS REGIONAL WEATHER ROUNDUP
NATIONAL WEATHER SERVICE NEW ORLEANS LA
700 PM CDT WED MAY 27 2015

NOTE: "FAIR" INDICATES FEW OR NO CLOUDS BELOW 12,000 FEET WITH NO
      SIGNIFICANT WEATHER AND/OR OBSTRUCTIONS TO VISIBILITY.
      SKY/WX - SKY CONDITION AND SIGNIFICANT WEATHER.
      TMP - AIR TEMPERATURE.     DP    - DEWPOINT TEMPERATURE.
      RH  - RELATIVE HUMIDITY.   PRES  - PRESSURE.
      HI  - HEAT INDEX.          WCI   - WIND CHILL INDEX.

*  THESE STATIONS ARE NOT NWS OR FAA STATIONS AND ARE NOT UNDER
   NWS QUALITY CONTROL.

LAZ038-040-048-061>063-065>067-069-280100-
SOUTHEAST LOUISIANA

CITY           SKY/WX    TMP DP  RH WIND       PRES   REMARKS
N.O. AUDUBON     N/A     81  70  68 MISG        N/A
6HR MIN TEMP:  68; 6HR MAX TEMP:  82;

N.O. INTL ARPT PTSUNNY   79  67  66 CALM      30.07R
6HR MIN TEMP:  70; 6HR MAX TEMP:  80; 6HR PCP:  0.01;

N.O. LAKEFRONT PTCLDY    82  68  62 E6        30.07R
6HR MIN TEMP:  73; 6HR MAX TEMP:  82; 6HR PCP:  0.06;

SLIDELL        PTCLDY    77  71  82 NW3       30.07R
6HR MIN TEMP:  67; 6HR MAX TEMP:  80; 6HR PCP:  0.45;

BATON ROUGE    MOSUNNY   75  68  78 E6        30.06R
6HR MIN TEMP:  68; 6HR MAX TEMP:  80; 6HR PCP:  0.01;

BOOTHVILLE     CLOUDY    77  69  76 E9        30.08F
6HR MIN TEMP:  75; 6HR MAX TEMP:  85; 6HR PCP: TRACE;

BELLE CHASSE   MOCLDY    78  67  68 SE9       30.06S
6HR MIN TEMP:  68; 6HR MAX TEMP:  79; 6HR PCP:  0.19;

BOGALUSA*        N/A     77  67  71 SE3       30.09F
6HR MIN TEMP:  72; 6HR MAX TEMP:  81; 6HR PCP:  0.10;

GALLIANO*      CLOUDY    78  69  74 CALM      30.07S
6HR MIN TEMP:  70; 6HR MAX TEMP:  80; 6HR PCP:  0.01;

NEW ROADS*       N/A     77  68  74 S3        30.07R
6HR MIN TEMP:  69; 6HR MAX TEMP:  79;

GONZALES*        N/A     76  69  78 SE5       30.07R
6HR MIN TEMP:  67; 6HR MAX TEMP:  79; 6HR PCP:  0.01;

HAMMOND*       PTSUNNY   75  66  73 CALM      30.09R
HOUMA*         MOSUNNY   75  70  83 SE5       30.06S
PORT FOURCHON* CLEAR     79  68  69 E8        30.06F

$$

MSZ070-080>082-280100-
SOUTHERN MISSISSIPPI

CITY           SKY/WX    TMP DP  RH WIND       PRES   REMARKS
MCCOMB         SUNNY     76  69  79 SE7       30.08R
6HR MIN TEMP:  68; 6HR MAX TEMP:  79; 6HR PCP:  0.11;

GULFPORT       PTCLDY    80  67  64 NE6       30.06F
6HR MIN TEMP:  74; 6HR MAX TEMP:  83;

BILOXI         MOCLDY    78  71  77 E7        30.07S
6HR MIN TEMP:  77; 6HR MAX TEMP:  84; 6HR PCP: TRACE;

PASCAGOULA     PTCLDY    79  71  76 E6        30.08F
6HR MIN TEMP:  77; 6HR MAX TEMP:  84; 6HR PCP: TRACE;


$$

COASTAL OBSERVATIONS
LAKE AND NEARSHORE STATIONS

STATION/POSITION TIME  TEMP    WIND        PRES    WAVE
                       AIR SEA DIR/SP/G            HT/PER
                 (UTC) (F)     (DEG/KT/KT) (MB)    (FT/S)
PASCAGOULA       2300   80      10/  2/  3 1018.4
WAVELAND YACHT   2300   78 80  120/  8/ 10 1018.3
GRAND ISLE       2300   78 81  130/  7/ 11 1018.0
SOUTHWEST PASS   2300   77 75  100/  7/  7 1019.8
NEW CANAL        2300   81 80     CALM     1016.9
SHELL BEACH      2300   80 81  110/  7/ 11 1017.3

OFFSHORE STATIONS

STATION/POSITION TIME  TEMP    WIND        PRES    WAVE
                       AIR SEA DIR/SP/G            HT/PER
                 (UTC) (F)     (DEG/KT/KT) (MB)    (FT/S)
64 S DAUPHIN ISL 2350   77 81  150/ 12/ 14 1020.5    3/ 7

$$



USA.gov is the U.S. government's official web portal to all federal, state and local government web resources and services.